N129DC MMCZ-MMCU

Flight info

Callsign N129DC
Flight time 3h 6m
Altitude 7500
Route OTIDU CUN ABBOT MOV DEL MANUN VNTRA
Aircraft LJ45/M-A/S

Departure

Time 2026-04-18 15:37
Airport Cozumel International Airport (MMCZ)

Arrival

Time 2026-04-18 18:43
Airport General Roberto Fierro Villalobos International Airport (MMCU)
Time Latitude Longitude Altitude Speed Heading
2026-04-18 15:11 20.51263 -86.93135 19 ft 0 kts 205°
2026-04-18 15:27 20.51265 -86.93134 19 ft 1 kts 205°
2026-04-18 15:27 20.51279 -86.93127 19 ft 3 kts 205°
2026-04-18 15:28 20.51296 -86.93118 19 ft 3 kts 205°
2026-04-18 15:28 20.51307 -86.93112 19 ft 2 kts 205°
2026-04-18 15:28 20.51288 -86.93102 19 ft 3 kts 97°
2026-04-18 15:28 20.51287 -86.93058 19 ft 9 kts 92°
2026-04-18 15:29 20.51267 -86.92983 19 ft 12 kts 116°
2026-04-18 15:29 20.51231 -86.92903 19 ft 12 kts 108°
2026-04-18 15:29 20.51271 -86.92855 19 ft 8 kts 26°
2026-04-18 15:29 20.51317 -86.92830 19 ft 6 kts 26°
2026-04-18 15:30 20.51352 -86.92812 19 ft 7 kts 26°
2026-04-18 15:30 20.51412 -86.92783 19 ft 11 kts 19°
2026-04-18 15:30 20.51475 -86.92823 19 ft 15 kts 307°
2026-04-18 15:30 20.51535 -86.92947 19 ft 21 kts 295°
2026-04-18 15:31 20.51597 -86.93088 19 ft 21 kts 295°
2026-04-18 15:31 20.51661 -86.93210 19 ft 13 kts 338°
2026-04-18 15:31 20.51743 -86.93190 19 ft 12 kts 22°
2026-04-18 15:31 20.51808 -86.93226 19 ft 18 kts 298°
2026-04-18 15:32 20.51883 -86.93400 19 ft 32 kts 293°
2026-04-18 15:32 20.51963 -86.93573 19 ft 19 kts 295°
2026-04-18 15:32 20.52022 -86.93705 19 ft 20 kts 298°
2026-04-18 15:32 20.52097 -86.93715 19 ft 13 kts 25°
2026-04-18 15:33 20.52195 -86.93718 19 ft 14 kts 341°
2026-04-18 15:33 20.52253 -86.93755 19 ft 10 kts 256°
2026-04-18 15:33 20.52213 -86.93893 19 ft 27 kts 253°
2026-04-18 15:33 20.52190 -86.94022 19 ft 11 kts 301°
2026-04-18 15:34 20.52200 -86.94036 19 ft 0 kts 318°
2026-04-18 15:35 20.52202 -86.94038 19 ft 1 kts 318°
2026-04-18 15:36 20.52234 -86.94062 19 ft 9 kts 349°
2026-04-18 15:36 20.52280 -86.94031 20 ft 10 kts 51°
2026-04-18 15:36 20.52476 -86.93734 19 ft 95 kts 56°
2026-04-18 15:36 20.53015 -86.92894 226 ft 173 kts 57°
2026-04-18 15:37 20.53845 -86.91582 444 ft 245 kts 59°
2026-04-18 15:37 20.54860 -86.89927 1152 ft 277 kts 58°
2026-04-18 15:37 20.55879 -86.88403 1736 ft 229 kts 55°
2026-04-18 15:37 20.56802 -86.87091 2344 ft 226 kts 54°
2026-04-18 15:38 20.57793 -86.85735 2984 ft 237 kts 53°
2026-04-18 15:38 20.58854 -86.84350 3615 ft 243 kts 52°
2026-04-18 15:38 20.59958 -86.82957 4245 ft 248 kts 52°
2026-04-18 15:38 20.61101 -86.81549 4874 ft 252 kts 52°
2026-04-18 15:39 20.62275 -86.80122 5504 ft 257 kts 51°
2026-04-18 15:39 20.63462 -86.78692 6128 ft 262 kts 51°
2026-04-18 15:39 20.64684 -86.77227 6760 ft 265 kts 50°
2026-04-18 15:39 20.65917 -86.75756 7388 ft 267 kts 50°
2026-04-18 15:40 20.67166 -86.74268 8018 ft 269 kts 50°
2026-04-18 15:40 20.68425 -86.72769 8647 ft 272 kts 50°
2026-04-18 15:40 20.69697 -86.71256 9276 ft 274 kts 49°
2026-04-18 15:40 20.70961 -86.69753 9896 ft 276 kts 49°
2026-04-18 15:41 20.72254 -86.68215 10525 ft 279 kts 49°
2026-04-18 15:41 20.73561 -86.66660 11157 ft 281 kts 49°
2026-04-18 15:41 20.74857 -86.65118 11777 ft 283 kts 49°
2026-04-18 15:41 20.76179 -86.63544 12405 ft 285 kts 49°
2026-04-18 15:42 20.77529 -86.61979 13030 ft 288 kts 44°
2026-04-18 15:42 20.79265 -86.60917 13652 ft 294 kts 18°
2026-04-18 15:42 20.81319 -86.60815 14281 ft 302 kts 352°
2026-04-18 15:42 20.83265 -86.61732 14917 ft 311 kts 326°
2026-04-18 15:43 20.84835 -86.63313 15549 ft 316 kts 313°
2026-04-18 15:43 20.86217 -86.65158 16180 ft 319 kts 309°
2026-04-18 15:43 20.87538 -86.67086 16810 ft 322 kts 308°
2026-04-18 15:43 20.88869 -86.69029 17440 ft 323 kts 309°
2026-04-18 15:44 20.90235 -86.70949 18067 ft 325 kts 309°
2026-04-18 15:44 20.91632 -86.72827 18687 ft 327 kts 311°
2026-04-18 15:44 20.93093 -86.74707 19316 ft 328 kts 312°
2026-04-18 15:44 20.94583 -86.76559 19943 ft 328 kts 313°
2026-04-18 15:45 20.96101 -86.78395 20571 ft 329 kts 314°
2026-04-18 15:45 20.97615 -86.80191 21189 ft 329 kts 314°
2026-04-18 15:45 20.99162 -86.82000 21815 ft 329 kts 315°
2026-04-18 15:45 21.00619 -86.83896 22442 ft 330 kts 308°
2026-04-18 15:46 21.01888 -86.85954 23071 ft 330 kts 303°
2026-04-18 15:46 21.03029 -86.88065 23692 ft 330 kts 301°
2026-04-18 15:46 21.04118 -86.90240 24320 ft 330 kts 300°
2026-04-18 15:46 21.05162 -86.92425 24946 ft 329 kts 299°
2026-04-18 15:47 21.06182 -86.94620 25572 ft 327 kts 298°
2026-04-18 15:47 21.07167 -86.96779 26188 ft 326 kts 298°
2026-04-18 15:47 21.08155 -86.98970 26815 ft 324 kts 298°
2026-04-18 15:47 21.09128 -87.01146 27440 ft 321 kts 298°
2026-04-18 15:48 21.10073 -87.03272 28055 ft 319 kts 298°
2026-04-18 15:48 21.11020 -87.05413 28679 ft 316 kts 298°
2026-04-18 15:48 21.11956 -87.07536 29303 ft 312 kts 298°
2026-04-18 15:48 21.12878 -87.09633 29926 ft 308 kts 298°
2026-04-18 15:49 21.13773 -87.11673 30539 ft 304 kts 298°
2026-04-18 15:49 21.14664 -87.13708 31161 ft 298 kts 298°
2026-04-18 15:49 21.15536 -87.15702 31780 ft 292 kts 298°
2026-04-18 15:49 21.16389 -87.17657 32368 ft 286 kts 298°
2026-04-18 15:50 21.17227 -87.19576 32884 ft 282 kts 298°
2026-04-18 15:50 21.18054 -87.21472 33384 ft 277 kts 298°
2026-04-18 15:50 21.18853 -87.23306 33872 ft 272 kts 298°
2026-04-18 15:50 21.19648 -87.25133 34366 ft 267 kts 298°
2026-04-18 15:51 21.20422 -87.26913 34857 ft 260 kts 298°
2026-04-18 15:51 21.21176 -87.28647 35348 ft 252 kts 298°
2026-04-18 15:51 21.21894 -87.30301 35819 ft 243 kts 298°
2026-04-18 15:51 21.22620 -87.31968 35951 ft 249 kts 298°
2026-04-18 15:52 21.23371 -87.33685 36017 ft 258 kts 298°
2026-04-18 15:52 21.24149 -87.35463 36032 ft 268 kts 298°
2026-04-18 15:52 21.24958 -87.37314 36033 ft 280 kts 298°
2026-04-18 15:52 21.25791 -87.39222 36032 ft 291 kts 298°
2026-04-18 15:53 21.26668 -87.41235 36031 ft 303 kts 298°
2026-04-18 15:53 21.27578 -87.43325 36031 ft 315 kts 297°
2026-04-18 15:53 21.28521 -87.45495 36025 ft 326 kts 298°
2026-04-18 15:53 21.29494 -87.47738 36031 ft 337 kts 297°
2026-04-18 15:54 21.30489 -87.50033 36029 ft 348 kts 297°
2026-04-18 15:54 21.31528 -87.52429 36028 ft 359 kts 297°
2026-04-18 15:54 21.33695 -87.57432 36027 ft 379 kts 297°
2026-04-18 15:55 21.35956 -87.62656 36026 ft 396 kts 297°
2026-04-18 15:55 21.38330 -87.68151 36025 ft 412 kts 297°
2026-04-18 15:56 21.40778 -87.73825 36025 ft 425 kts 297°
2026-04-18 15:56 21.43289 -87.79656 36025 ft 436 kts 297°
2026-04-18 15:57 21.45863 -87.85639 36024 ft 445 kts 297°
2026-04-18 15:57 21.48461 -87.91685 36023 ft 450 kts 297°
2026-04-18 15:58 21.51082 -87.97797 36023 ft 450 kts 297°
2026-04-18 15:58 21.53688 -88.03880 36022 ft 451 kts 297°
2026-04-18 15:59 21.56307 -88.10002 36022 ft 451 kts 297°
2026-04-18 15:59 21.58929 -88.16139 36022 ft 451 kts 297°
2026-04-18 16:00 21.61555 -88.22289 36022 ft 452 kts 297°
2026-04-18 16:00 21.64163 -88.28403 36022 ft 452 kts 296°
2026-04-18 16:01 21.66776 -88.34534 36022 ft 452 kts 296°
2026-04-18 16:01 21.69403 -88.40707 36022 ft 452 kts 296°
2026-04-18 16:02 21.72005 -88.46831 36022 ft 452 kts 296°
2026-04-18 16:02 21.74629 -88.53013 36022 ft 452 kts 296°
2026-04-18 16:03 21.77229 -88.59145 36023 ft 451 kts 296°
2026-04-18 16:03 21.79839 -88.65310 36022 ft 450 kts 296°
2026-04-18 16:04 21.82419 -88.71410 36022 ft 449 kts 296°
2026-04-18 16:04 21.85007 -88.77539 36022 ft 448 kts 296°
2026-04-18 16:05 21.87573 -88.83622 36022 ft 448 kts 296°
2026-04-18 16:05 21.90170 -88.89784 36023 ft 453 kts 296°
2026-04-18 16:06 21.92766 -88.95950 36023 ft 455 kts 296°
2026-04-18 16:06 21.95377 -89.02160 36022 ft 456 kts 296°
2026-04-18 16:07 21.97992 -89.08389 36022 ft 456 kts 296°
2026-04-18 16:07 22.00610 -89.14634 36022 ft 457 kts 295°
2026-04-18 16:08 22.03223 -89.20874 36022 ft 457 kts 295°
2026-04-18 16:08 22.05825 -89.27095 36022 ft 458 kts 295°
2026-04-18 16:09 22.08461 -89.33403 36023 ft 461 kts 295°
2026-04-18 16:09 22.11095 -89.39715 36023 ft 464 kts 295°
2026-04-18 16:10 22.13733 -89.46048 36022 ft 465 kts 295°
2026-04-18 16:10 22.16390 -89.52434 36017 ft 466 kts 295°
2026-04-18 16:11 22.19035 -89.58802 36003 ft 466 kts 295°
2026-04-18 16:11 22.21697 -89.65217 36001 ft 466 kts 295°
2026-04-18 16:12 22.24337 -89.71587 36001 ft 466 kts 295°
2026-04-18 16:12 22.26539 -89.76908 36001 ft 466 kts 294°
2026-04-18 16:13 22.29178 -89.83289 36001 ft 466 kts 294°
2026-04-18 16:13 22.31826 -89.89701 36001 ft 467 kts 294°
2026-04-18 16:14 22.34471 -89.96118 36001 ft 467 kts 294°
2026-04-18 16:14 22.37100 -90.02503 36002 ft 467 kts 294°
2026-04-18 16:15 22.41045 -90.12103 36002 ft 467 kts 294°
2026-04-18 16:16 22.43684 -90.18532 36003 ft 467 kts 294°
2026-04-18 16:16 22.46307 -90.24934 36002 ft 467 kts 294°
2026-04-18 16:17 22.48947 -90.31382 36000 ft 467 kts 293°
2026-04-18 16:17 22.51569 -90.37794 35997 ft 467 kts 293°
2026-04-18 16:18 22.54187 -90.44208 35996 ft 467 kts 293°
2026-04-18 16:18 22.56824 -90.50679 35994 ft 468 kts 293°
2026-04-18 16:19 22.59427 -90.57075 35993 ft 467 kts 293°
2026-04-18 16:19 22.62053 -90.63534 35994 ft 467 kts 293°
2026-04-18 16:20 22.64661 -90.69959 35995 ft 467 kts 293°
2026-04-18 16:20 22.67286 -90.76435 35993 ft 468 kts 293°
2026-04-18 16:21 22.69887 -90.82858 35993 ft 466 kts 293°
2026-04-18 16:21 22.72481 -90.89274 35993 ft 466 kts 293°
2026-04-18 16:22 22.75088 -90.95732 35993 ft 465 kts 293°
2026-04-18 16:22 22.77663 -91.02118 35993 ft 464 kts 293°
2026-04-18 16:23 22.80253 -91.08549 35993 ft 464 kts 292°
2026-04-18 16:23 22.84111 -91.18148 35993 ft 463 kts 292°
2026-04-18 16:24 22.86684 -91.24561 35993 ft 463 kts 292°
2026-04-18 16:24 22.89240 -91.30937 35993 ft 462 kts 292°
2026-04-18 16:25 22.91794 -91.37315 35993 ft 461 kts 292°
2026-04-18 16:25 22.94342 -91.43691 35993 ft 458 kts 292°
2026-04-18 16:26 22.96865 -91.50016 35993 ft 457 kts 292°
2026-04-18 16:26 22.99389 -91.56349 35993 ft 456 kts 291°
2026-04-18 16:27 23.01887 -91.62630 35993 ft 455 kts 291°
2026-04-18 16:27 23.04404 -91.68965 35993 ft 455 kts 291°
2026-04-18 16:28 23.06902 -91.75259 35993 ft 455 kts 291°
2026-04-18 16:28 23.09415 -91.81599 35993 ft 456 kts 291°
2026-04-18 16:29 23.11910 -91.87905 35993 ft 457 kts 291°
2026-04-18 16:29 23.14410 -91.94229 35993 ft 457 kts 291°
2026-04-18 16:30 23.16928 -92.00612 35993 ft 457 kts 291°
2026-04-18 16:30 23.19423 -92.06941 35993 ft 458 kts 291°
2026-04-18 16:31 23.21925 -92.13298 35993 ft 458 kts 291°
2026-04-18 16:31 23.24440 -92.19696 35993 ft 458 kts 291°
2026-04-18 16:32 23.26927 -92.26032 35993 ft 457 kts 291°
2026-04-18 16:32 23.29426 -92.32407 35993 ft 456 kts 291°
2026-04-18 16:33 23.31901 -92.38731 35993 ft 455 kts 291°
2026-04-18 16:33 23.34369 -92.45045 35993 ft 454 kts 291°
2026-04-18 16:34 23.36842 -92.51379 35993 ft 454 kts 291°
2026-04-18 16:34 23.39304 -92.57697 35993 ft 454 kts 291°
2026-04-18 16:35 23.41770 -92.64034 35993 ft 454 kts 291°
2026-04-18 16:35 23.44221 -92.70341 35993 ft 454 kts 291°
2026-04-18 16:36 23.46684 -92.76687 35993 ft 454 kts 291°
2026-04-18 16:36 23.49129 -92.82998 35993 ft 454 kts 291°
2026-04-18 16:37 23.51589 -92.89354 35993 ft 455 kts 291°
2026-04-18 16:37 23.54034 -92.95682 35993 ft 455 kts 291°
2026-04-18 16:38 23.56492 -93.02051 35993 ft 455 kts 291°
2026-04-18 16:38 23.58938 -93.08396 35993 ft 455 kts 291°
2026-04-18 16:39 23.61393 -93.14775 35993 ft 455 kts 291°
2026-04-18 16:39 23.63830 -93.21117 35993 ft 455 kts 291°
2026-04-18 16:40 23.66280 -93.27504 35993 ft 455 kts 291°
2026-04-18 16:40 23.68715 -93.33855 35993 ft 454 kts 291°
2026-04-18 16:41 23.72364 -93.43396 35993 ft 454 kts 291°
2026-04-18 16:42 23.74804 -93.49787 35993 ft 454 kts 291°
2026-04-18 16:42 23.77218 -93.56121 35993 ft 454 kts 291°
2026-04-18 16:43 23.79635 -93.62470 35993 ft 454 kts 291°
2026-04-18 16:43 23.82067 -93.68869 35993 ft 454 kts 291°
2026-04-18 16:44 23.84481 -93.75229 35993 ft 454 kts 291°
2026-04-18 16:44 23.86888 -93.81577 35993 ft 454 kts 290°
2026-04-18 16:45 23.89313 -93.87987 35993 ft 455 kts 290°
2026-04-18 16:45 23.91731 -93.94385 35993 ft 455 kts 290°
2026-04-18 16:46 23.94136 -94.00759 35993 ft 455 kts 290°
2026-04-18 16:46 23.96539 -94.07139 35993 ft 455 kts 290°
2026-04-18 16:47 23.98954 -94.13558 35993 ft 455 kts 290°
2026-04-18 16:47 24.01362 -94.19969 35993 ft 455 kts 290°
2026-04-18 16:48 24.03760 -94.26365 35993 ft 455 kts 290°
2026-04-18 16:48 24.06150 -94.32741 35993 ft 455 kts 290°
2026-04-18 16:49 24.08535 -94.39123 35993 ft 454 kts 290°
2026-04-18 16:49 24.10928 -94.45537 35993 ft 454 kts 290°
2026-04-18 16:50 24.13309 -94.51932 35993 ft 454 kts 290°
2026-04-18 16:50 24.15833 -94.58306 35993 ft 455 kts 292°
2026-04-18 16:51 24.18501 -94.64574 35993 ft 455 kts 292°
2026-04-18 16:51 24.21220 -94.70811 35993 ft 455 kts 293°
2026-04-18 16:52 24.23969 -94.77078 35993 ft 455 kts 293°
2026-04-18 16:52 24.26701 -94.83301 35993 ft 454 kts 292°
2026-04-18 16:53 24.29447 -94.89566 35993 ft 453 kts 292°
2026-04-18 16:53 24.32160 -94.95773 35993 ft 453 kts 292°
2026-04-18 16:54 24.34893 -95.02033 35994 ft 454 kts 292°
2026-04-18 16:54 24.37602 -95.08254 35993 ft 453 kts 292°
2026-04-18 16:55 24.40307 -95.14482 35993 ft 453 kts 292°
2026-04-18 16:55 24.43019 -95.20735 35993 ft 453 kts 292°
2026-04-18 16:56 24.45707 -95.26945 35993 ft 453 kts 292°
2026-04-18 16:56 24.48415 -95.33210 35993 ft 453 kts 291°
2026-04-18 16:57 24.51102 -95.39433 35993 ft 453 kts 291°
2026-04-18 16:57 24.53802 -95.45698 35993 ft 453 kts 291°
2026-04-18 16:58 24.56503 -95.51973 35993 ft 453 kts 291°
2026-04-18 16:58 24.59181 -95.58204 35993 ft 453 kts 291°
2026-04-18 16:59 24.61879 -95.64489 35993 ft 453 kts 291°
2026-04-18 16:59 24.64557 -95.70736 35993 ft 453 kts 291°
2026-04-18 17:00 24.66795 -95.75964 35993 ft 453 kts 291°
2026-04-18 17:00 24.69467 -95.82209 35993 ft 453 kts 291°
2026-04-18 17:01 24.72155 -95.88504 35993 ft 453 kts 291°
2026-04-18 17:01 24.74814 -95.94741 35993 ft 453 kts 291°
2026-04-18 17:02 24.77495 -96.01033 35993 ft 451 kts 290°
2026-04-18 17:02 24.80131 -96.07229 35993 ft 449 kts 290°
2026-04-18 17:03 24.82778 -96.13463 35993 ft 448 kts 290°
2026-04-18 17:03 24.85401 -96.19651 35954 ft 447 kts 290°
2026-04-18 17:04 24.88031 -96.25863 35932 ft 445 kts 290°
2026-04-18 17:04 24.90645 -96.32045 35930 ft 444 kts 290°
2026-04-18 17:05 24.93231 -96.38171 35930 ft 443 kts 290°
2026-04-18 17:05 24.95829 -96.44334 35929 ft 443 kts 290°
2026-04-18 17:06 24.98429 -96.50511 35929 ft 443 kts 290°
2026-04-18 17:06 25.01010 -96.56653 35929 ft 442 kts 290°
2026-04-18 17:07 25.03582 -96.62781 35928 ft 442 kts 290°
2026-04-18 17:07 25.06173 -96.68963 35928 ft 442 kts 290°
2026-04-18 17:08 25.08748 -96.75114 35928 ft 442 kts 290°
2026-04-18 17:08 25.11317 -96.81259 35927 ft 442 kts 290°
2026-04-18 17:09 25.13884 -96.87407 35927 ft 442 kts 289°
2026-04-18 17:09 25.16464 -96.93594 35927 ft 442 kts 289°
2026-04-18 17:10 25.19035 -96.99773 35926 ft 442 kts 289°
2026-04-18 17:10 25.21580 -97.05893 35933 ft 441 kts 289°
2026-04-18 17:11 25.24139 -97.12057 35934 ft 440 kts 289°
2026-04-18 17:11 25.26693 -97.18217 35934 ft 440 kts 289°
2026-04-18 17:12 25.29235 -97.24356 35934 ft 438 kts 289°
2026-04-18 17:12 25.31751 -97.30441 35934 ft 437 kts 289°
2026-04-18 17:13 25.34280 -97.36567 35934 ft 436 kts 289°
2026-04-18 17:13 25.36799 -97.42678 35934 ft 436 kts 289°
2026-04-18 17:14 25.39313 -97.48786 35934 ft 436 kts 289°
2026-04-18 17:14 25.41808 -97.54859 35934 ft 436 kts 289°
2026-04-18 17:15 25.44325 -97.60993 35934 ft 436 kts 289°
2026-04-18 17:15 25.46818 -97.67075 35933 ft 436 kts 289°
2026-04-18 17:16 25.49325 -97.73200 35933 ft 436 kts 289°
2026-04-18 17:16 25.51833 -97.79337 35934 ft 436 kts 289°
2026-04-18 17:17 25.54325 -97.85445 35934 ft 436 kts 289°
2026-04-18 17:17 25.56804 -97.91525 35934 ft 435 kts 289°
2026-04-18 17:18 25.59292 -97.97638 35934 ft 435 kts 289°
2026-04-18 17:18 25.61778 -98.03756 35934 ft 435 kts 289°
2026-04-18 17:19 25.64262 -98.09878 35934 ft 435 kts 289°
2026-04-18 17:19 25.66729 -98.15968 35934 ft 436 kts 289°
2026-04-18 17:20 25.69212 -98.22106 35934 ft 436 kts 289°
2026-04-18 17:20 25.71694 -98.28250 35934 ft 436 kts 289°
2026-04-18 17:21 25.74175 -98.34397 35934 ft 436 kts 289°
2026-04-18 17:21 25.76635 -98.40501 35934 ft 435 kts 289°
2026-04-18 17:22 25.79102 -98.46631 35933 ft 434 kts 289°
2026-04-18 17:22 25.81555 -98.52736 35933 ft 433 kts 288°
2026-04-18 17:23 25.83996 -98.58824 35934 ft 433 kts 288°
2026-04-18 17:23 25.86455 -98.64963 35932 ft 433 kts 288°
2026-04-18 17:24 25.88889 -98.71049 35931 ft 432 kts 288°
2026-04-18 17:24 25.91325 -98.77150 35931 ft 432 kts 288°
2026-04-18 17:25 25.93758 -98.83252 35931 ft 432 kts 288°
2026-04-18 17:25 25.96191 -98.89362 35931 ft 432 kts 288°
2026-04-18 17:26 25.98602 -98.95427 35932 ft 432 kts 288°
2026-04-18 17:26 26.01027 -99.01538 35933 ft 432 kts 288°
2026-04-18 17:27 26.03444 -99.07636 35935 ft 432 kts 288°
2026-04-18 17:27 26.07073 -99.16806 35939 ft 432 kts 288°
2026-04-18 17:28 26.09490 -99.22927 35941 ft 432 kts 288°
2026-04-18 17:28 26.11906 -99.29053 35942 ft 432 kts 288°
2026-04-18 17:29 26.14323 -99.35190 35942 ft 432 kts 288°
2026-04-18 17:29 26.16739 -99.41333 35944 ft 433 kts 288°
2026-04-18 17:30 26.19140 -99.47448 35945 ft 433 kts 288°
2026-04-18 17:30 26.21550 -99.53596 35946 ft 432 kts 288°
2026-04-18 17:31 26.23946 -99.59714 35947 ft 431 kts 288°
2026-04-18 17:31 26.26340 -99.65832 35951 ft 429 kts 288°
2026-04-18 17:32 26.28712 -99.71907 35951 ft 428 kts 288°
2026-04-18 17:32 26.31084 -99.77996 35951 ft 428 kts 288°
2026-04-18 17:33 26.34639 -99.87137 35953 ft 428 kts 288°
2026-04-18 17:34 26.36986 -99.93186 35955 ft 428 kts 288°
2026-04-18 17:34 26.39349 -99.99282 35957 ft 428 kts 287°
2026-04-18 17:35 26.41711 -100.05385 35958 ft 428 kts 287°
2026-04-18 17:35 26.44065 -100.11482 35643 ft 434 kts 288°
2026-04-18 17:35 26.45261 -100.14588 35137 ft 433 kts 288°
2026-04-18 17:36 26.46451 -100.17670 34534 ft 429 kts 288°
2026-04-18 17:36 26.47612 -100.20675 33920 ft 424 kts 288°
2026-04-18 17:36 26.48773 -100.23676 33296 ft 419 kts 288°
2026-04-18 17:36 26.49920 -100.26646 32669 ft 414 kts 288°
2026-04-18 17:37 26.51053 -100.29580 32043 ft 409 kts 288°
2026-04-18 17:37 26.52160 -100.32455 31422 ft 404 kts 288°
2026-04-18 17:37 26.53267 -100.35332 30794 ft 400 kts 288°
2026-04-18 17:37 26.54363 -100.38184 30166 ft 396 kts 288°
2026-04-18 17:38 26.55443 -100.41001 29540 ft 393 kts 288°
2026-04-18 17:38 26.56515 -100.43803 28914 ft 391 kts 288°
2026-04-18 17:38 26.57583 -100.46594 28287 ft 389 kts 288°
2026-04-18 17:38 26.58641 -100.49364 27661 ft 387 kts 289°
2026-04-18 17:39 26.59681 -100.52090 27042 ft 385 kts 289°
2026-04-18 17:39 26.60731 -100.54844 26415 ft 384 kts 289°
2026-04-18 17:39 26.61777 -100.57589 25788 ft 382 kts 290°
2026-04-18 17:39 26.62817 -100.60321 25163 ft 381 kts 290°
2026-04-18 17:40 26.63855 -100.63046 24536 ft 380 kts 290°
2026-04-18 17:40 26.64889 -100.65763 23910 ft 378 kts 290°
2026-04-18 17:40 26.65905 -100.68434 23291 ft 376 kts 290°
2026-04-18 17:40 26.66930 -100.71129 22664 ft 374 kts 291°
2026-04-18 17:41 26.67947 -100.73803 22037 ft 371 kts 291°
2026-04-18 17:41 26.68956 -100.76458 21410 ft 369 kts 291°
2026-04-18 17:41 26.69946 -100.79064 20790 ft 366 kts 291°
2026-04-18 17:41 26.70938 -100.81678 20165 ft 363 kts 291°
2026-04-18 17:42 26.71921 -100.84269 19537 ft 358 kts 291°
2026-04-18 17:42 26.72881 -100.86800 18917 ft 354 kts 291°
2026-04-18 17:42 26.73841 -100.89335 18288 ft 351 kts 291°
2026-04-18 17:42 26.74791 -100.91845 17660 ft 347 kts 292°
2026-04-18 17:43 26.75719 -100.94299 17039 ft 344 kts 292°
2026-04-18 17:43 26.76645 -100.96750 16412 ft 338 kts 292°
2026-04-18 17:43 26.76736 -100.96992 16349 ft 337 kts 292°
2026-04-18 17:43 26.76846 -100.97283 16274 ft 336 kts 292°
2026-04-18 17:44 26.77748 -100.99670 15645 ft 328 kts 292°
2026-04-18 17:44 26.78626 -101.01996 15017 ft 320 kts 292°
2026-04-18 17:44 26.79488 -101.04283 14388 ft 316 kts 292°
2026-04-18 17:44 26.80333 -101.06521 14064 ft 306 kts 292°
2026-04-18 17:45 26.81139 -101.08659 14010 ft 299 kts 292°
2026-04-18 17:45 26.81950 -101.10811 14004 ft 299 kts 292°
2026-04-18 17:45 26.82766 -101.12979 14005 ft 304 kts 292°
2026-04-18 17:45 26.83590 -101.15171 14005 ft 306 kts 292°
2026-04-18 17:46 26.84410 -101.17353 14004 ft 308 kts 292°
2026-04-18 17:46 26.85245 -101.19575 14004 ft 309 kts 292°
2026-04-18 17:46 26.86082 -101.21801 14004 ft 310 kts 292°
2026-04-18 17:46 26.86918 -101.24028 14004 ft 310 kts 292°
2026-04-18 17:47 26.87744 -101.26230 14001 ft 311 kts 292°
2026-04-18 17:47 26.88583 -101.28466 14000 ft 311 kts 292°
2026-04-18 17:47 26.89421 -101.30702 13999 ft 311 kts 292°
2026-04-18 17:47 26.89977 -101.32186 13998 ft 311 kts 292°
2026-04-18 17:48 26.90815 -101.34424 13997 ft 311 kts 292°
2026-04-18 17:48 26.91648 -101.36648 13997 ft 311 kts 292°
2026-04-18 17:48 26.92484 -101.38884 13997 ft 311 kts 292°
2026-04-18 17:48 26.93322 -101.41125 13997 ft 311 kts 292°
2026-04-18 17:49 26.94154 -101.43371 13997 ft 311 kts 291°
2026-04-18 17:49 26.94950 -101.45595 13997 ft 311 kts 291°
2026-04-18 17:49 26.95739 -101.47859 13997 ft 311 kts 290°
2026-04-18 17:49 26.96515 -101.50118 13997 ft 311 kts 290°
2026-04-18 17:50 26.97286 -101.52385 13997 ft 311 kts 290°
2026-04-18 17:50 26.98052 -101.54650 13997 ft 311 kts 290°
2026-04-18 17:50 26.98819 -101.56926 13997 ft 311 kts 290°
2026-04-18 17:50 26.99581 -101.59197 13997 ft 311 kts 290°
2026-04-18 17:51 27.00332 -101.61440 13997 ft 311 kts 290°
2026-04-18 17:51 27.01095 -101.63724 13997 ft 311 kts 290°
2026-04-18 17:51 27.01855 -101.66000 13997 ft 311 kts 290°
2026-04-18 17:51 27.02605 -101.68251 13997 ft 311 kts 290°
2026-04-18 17:52 27.03362 -101.70525 13997 ft 311 kts 290°
2026-04-18 17:52 27.04119 -101.72802 13998 ft 311 kts 290°
2026-04-18 17:52 27.04866 -101.75046 14000 ft 309 kts 289°
2026-04-18 17:52 27.05621 -101.77313 13998 ft 308 kts 288°
2026-04-18 17:53 27.06374 -101.79580 13999 ft 310 kts 288°
2026-04-18 17:53 27.07131 -101.81863 14000 ft 315 kts 287°
2026-04-18 17:53 27.07888 -101.84154 14001 ft 319 kts 287°
2026-04-18 17:53 27.08662 -101.86504 14004 ft 322 kts 287°
2026-04-18 17:54 27.09448 -101.88877 14001 ft 325 kts 287°
2026-04-18 17:54 27.10239 -101.91271 14001 ft 327 kts 287°
2026-04-18 17:54 27.11035 -101.93682 14002 ft 329 kts 287°
2026-04-18 17:54 27.11821 -101.96065 14002 ft 330 kts 287°
2026-04-18 17:55 27.12622 -101.98494 14003 ft 330 kts 287°
2026-04-18 17:55 27.13424 -102.00929 14004 ft 331 kts 287°
2026-04-18 17:55 27.14224 -102.03355 14004 ft 331 kts 287°
2026-04-18 17:55 27.15017 -102.05764 14003 ft 331 kts 287°
2026-04-18 17:56 27.15819 -102.08200 14003 ft 331 kts 287°
2026-04-18 17:56 27.16610 -102.10608 14003 ft 332 kts 287°
2026-04-18 17:56 27.18212 -102.15484 14003 ft 332 kts 287°
2026-04-18 17:57 27.18999 -102.17882 14003 ft 331 kts 287°
2026-04-18 17:57 27.20597 -102.22759 14002 ft 331 kts 287°
2026-04-18 17:58 27.22181 -102.27603 14000 ft 332 kts 288°
2026-04-18 17:58 27.23783 -102.32508 14003 ft 336 kts 288°
2026-04-18 17:59 27.25406 -102.37487 13977 ft 340 kts 289°
2026-04-18 17:59 27.26213 -102.39936 13987 ft 337 kts 288°
2026-04-18 17:59 27.27834 -102.44895 13989 ft 337 kts 288°
2026-04-18 18:00 27.28638 -102.47367 13986 ft 336 kts 288°
2026-04-18 18:00 27.29566 -102.50223 13986 ft 335 kts 288°
2026-04-18 18:01 27.31150 -102.55105 13987 ft 334 kts 287°
2026-04-18 18:01 27.32747 -102.60033 13988 ft 334 kts 287°
2026-04-18 18:02 27.34328 -102.64918 13990 ft 333 kts 287°
2026-04-18 18:02 27.35909 -102.69810 13986 ft 333 kts 287°
2026-04-18 18:02 27.36705 -102.72272 13985 ft 333 kts 287°
2026-04-18 18:03 27.38292 -102.77186 13984 ft 334 kts 286°
2026-04-18 18:03 27.39082 -102.79634 13985 ft 334 kts 287°
2026-04-18 18:04 27.40667 -102.84554 13987 ft 336 kts 287°
2026-04-18 18:04 27.41466 -102.87037 13988 ft 336 kts 286°
2026-04-18 18:04 27.43045 -102.91952 13984 ft 336 kts 287°
2026-04-18 18:05 27.44641 -102.96925 13982 ft 336 kts 286°
2026-04-18 18:05 27.45438 -102.99410 13982 ft 337 kts 286°
2026-04-18 18:05 27.46224 -103.01862 13982 ft 337 kts 286°
2026-04-18 18:06 27.47816 -103.06834 13982 ft 337 kts 286°
2026-04-18 18:06 27.48611 -103.09318 13982 ft 337 kts 286°
2026-04-18 18:06 27.49396 -103.11776 13982 ft 337 kts 286°
2026-04-18 18:07 27.50190 -103.14262 13982 ft 337 kts 286°
2026-04-18 18:07 27.50984 -103.16748 13982 ft 337 kts 286°
2026-04-18 18:07 27.52566 -103.21712 13982 ft 337 kts 286°
2026-04-18 18:08 27.53358 -103.24200 13982 ft 337 kts 286°
2026-04-18 18:08 27.54144 -103.26665 13982 ft 337 kts 285°
2026-04-18 18:08 27.54935 -103.29150 13982 ft 336 kts 285°
2026-04-18 18:08 27.55724 -103.31630 13982 ft 334 kts 285°
2026-04-18 18:09 27.56504 -103.34083 13992 ft 332 kts 285°
2026-04-18 18:09 27.57282 -103.36532 13998 ft 331 kts 285°
2026-04-18 18:09 27.58049 -103.38951 14002 ft 330 kts 285°
2026-04-18 18:09 27.58822 -103.41389 14003 ft 330 kts 285°
2026-04-18 18:10 27.59595 -103.43831 14003 ft 329 kts 285°
2026-04-18 18:10 27.60355 -103.46236 14004 ft 329 kts 285°
2026-04-18 18:10 27.61127 -103.48677 14004 ft 329 kts 285°
2026-04-18 18:10 27.61898 -103.51117 14004 ft 329 kts 285°
2026-04-18 18:11 27.62667 -103.53554 14004 ft 329 kts 285°
2026-04-18 18:11 27.63426 -103.55960 14004 ft 329 kts 285°
2026-04-18 18:11 27.64194 -103.58397 14004 ft 329 kts 285°
2026-04-18 18:11 27.64953 -103.60805 14004 ft 329 kts 285°
2026-04-18 18:12 27.65722 -103.63248 14004 ft 329 kts 285°
2026-04-18 18:12 27.66490 -103.65688 14004 ft 329 kts 285°
2026-04-18 18:12 27.67249 -103.68100 14004 ft 329 kts 285°
2026-04-18 18:12 27.68016 -103.70543 14004 ft 329 kts 285°
2026-04-18 18:13 27.68781 -103.72977 14004 ft 329 kts 285°
2026-04-18 18:13 27.69536 -103.75383 14004 ft 329 kts 285°
2026-04-18 18:13 27.70300 -103.77819 14006 ft 328 kts 285°
2026-04-18 18:13 27.71062 -103.80252 14004 ft 327 kts 285°
2026-04-18 18:14 27.71821 -103.82673 14004 ft 325 kts 285°
2026-04-18 18:14 27.72569 -103.85062 14003 ft 324 kts 285°
2026-04-18 18:14 27.73313 -103.87438 14004 ft 324 kts 285°
2026-04-18 18:14 27.74064 -103.89840 14001 ft 323 kts 285°
2026-04-18 18:15 27.74815 -103.92244 14000 ft 323 kts 285°
2026-04-18 18:15 27.75563 -103.94642 14000 ft 323 kts 285°
2026-04-18 18:15 27.76306 -103.97020 13999 ft 323 kts 285°
2026-04-18 18:15 27.77053 -103.99416 14000 ft 324 kts 284°
2026-04-18 18:16 27.77799 -104.01813 14000 ft 324 kts 284°
2026-04-18 18:16 27.78546 -104.04211 14000 ft 324 kts 284°
2026-04-18 18:16 27.79295 -104.06622 14001 ft 324 kts 284°
2026-04-18 18:16 27.80034 -104.08999 14001 ft 324 kts 284°
2026-04-18 18:17 27.80782 -104.11410 14001 ft 324 kts 284°
2026-04-18 18:17 27.81532 -104.13825 14001 ft 324 kts 284°
2026-04-18 18:17 27.82268 -104.16198 14001 ft 324 kts 284°
2026-04-18 18:17 27.83012 -104.18601 14001 ft 324 kts 284°
2026-04-18 18:18 27.83759 -104.21011 14001 ft 324 kts 284°
2026-04-18 18:18 27.84505 -104.23421 14001 ft 324 kts 284°
2026-04-18 18:18 27.85250 -104.25830 14001 ft 324 kts 284°
2026-04-18 18:18 27.85985 -104.28205 14001 ft 323 kts 284°
2026-04-18 18:19 27.86726 -104.30603 14000 ft 322 kts 284°
2026-04-18 18:19 27.87465 -104.32997 14000 ft 322 kts 284°
2026-04-18 18:19 27.88205 -104.35394 14001 ft 321 kts 284°
2026-04-18 18:19 27.88943 -104.37788 14001 ft 321 kts 284°
2026-04-18 18:20 27.89669 -104.40145 14001 ft 321 kts 284°
2026-04-18 18:20 27.90404 -104.42533 14001 ft 321 kts 284°
2026-04-18 18:20 27.91138 -104.44920 14000 ft 321 kts 284°
2026-04-18 18:20 27.91874 -104.47314 14000 ft 321 kts 284°
2026-04-18 18:21 27.92608 -104.49704 14000 ft 321 kts 284°
2026-04-18 18:21 27.93339 -104.52087 14000 ft 321 kts 284°
2026-04-18 18:21 27.94064 -104.54451 14001 ft 321 kts 284°
2026-04-18 18:21 27.94795 -104.56836 14001 ft 321 kts 284°
2026-04-18 18:22 27.95527 -104.59226 14002 ft 321 kts 284°
2026-04-18 18:22 27.96260 -104.61618 14003 ft 321 kts 284°
2026-04-18 18:22 27.96991 -104.64007 14003 ft 321 kts 284°
2026-04-18 18:22 27.97720 -104.66393 14002 ft 321 kts 284°
2026-04-18 18:23 27.98440 -104.68751 14002 ft 321 kts 284°
2026-04-18 18:23 27.99172 -104.71150 14002 ft 321 kts 284°
2026-04-18 18:23 27.99901 -104.73537 14002 ft 321 kts 284°
2026-04-18 18:23 28.00628 -104.75924 14002 ft 321 kts 284°
2026-04-18 18:24 28.01345 -104.78282 14039 ft 319 kts 285°
2026-04-18 18:24 28.02067 -104.80657 14055 ft 318 kts 285°
2026-04-18 18:24 28.02788 -104.83027 14047 ft 318 kts 285°
2026-04-18 18:24 28.03501 -104.85369 14037 ft 317 kts 285°
2026-04-18 18:25 28.04221 -104.87740 13806 ft 322 kts 286°
2026-04-18 18:25 28.04948 -104.90144 13379 ft 322 kts 287°
2026-04-18 18:25 28.05670 -104.92533 12999 ft 315 kts 288°
2026-04-18 18:25 28.06363 -104.94823 12623 ft 306 kts 289°
2026-04-18 18:26 28.07047 -104.97085 12243 ft 298 kts 289°
2026-04-18 18:26 28.07716 -104.99295 11864 ft 293 kts 290°
2026-04-18 18:26 28.08367 -105.01444 11492 ft 291 kts 290°
2026-04-18 18:26 28.09022 -105.03607 11114 ft 289 kts 290°
2026-04-18 18:27 28.09672 -105.05756 10738 ft 288 kts 290°
2026-04-18 18:27 28.10322 -105.07903 10362 ft 287 kts 289°
2026-04-18 18:27 28.10970 -105.10046 9986 ft 287 kts 290°
2026-04-18 18:27 28.11616 -105.12185 9611 ft 287 kts 290°
2026-04-18 18:28 28.12261 -105.14324 9235 ft 286 kts 290°
2026-04-18 18:28 28.12896 -105.16431 8865 ft 286 kts 290°
2026-04-18 18:28 28.13538 -105.18564 8488 ft 285 kts 290°
2026-04-18 18:28 28.14177 -105.20691 8111 ft 284 kts 290°
2026-04-18 18:29 28.14794 -105.22744 7745 ft 282 kts 290°
2026-04-18 18:29 28.15065 -105.23647 7585 ft 282 kts 290°
2026-04-18 18:29 28.15695 -105.25753 7206 ft 280 kts 290°
2026-04-18 18:29 28.16316 -105.27831 6989 ft 274 kts 290°
2026-04-18 18:30 28.16924 -105.29861 6898 ft 270 kts 291°
2026-04-18 18:30 28.17529 -105.31875 6871 ft 269 kts 291°
2026-04-18 18:30 28.18129 -105.33860 6866 ft 269 kts 291°
2026-04-18 18:30 28.18738 -105.35886 6866 ft 270 kts 290°
2026-04-18 18:31 28.19337 -105.37886 6864 ft 271 kts 291°
2026-04-18 18:31 28.19944 -105.39918 6863 ft 272 kts 290°
2026-04-18 18:31 28.20553 -105.41956 6863 ft 272 kts 290°
2026-04-18 18:31 28.21152 -105.43972 6860 ft 272 kts 291°
2026-04-18 18:32 28.21757 -105.46015 6856 ft 273 kts 290°
2026-04-18 18:32 28.22363 -105.48067 6861 ft 272 kts 290°
2026-04-18 18:32 28.22960 -105.50087 6865 ft 272 kts 290°
2026-04-18 18:32 28.23563 -105.52131 6864 ft 272 kts 290°
2026-04-18 18:33 28.24154 -105.54151 6863 ft 265 kts 290°
2026-04-18 18:33 28.24718 -105.56076 6861 ft 257 kts 290°
2026-04-18 18:33 28.25287 -105.57970 6861 ft 250 kts 294°
2026-04-18 18:33 28.26197 -105.59616 6867 ft 244 kts 312°
2026-04-18 18:34 28.27355 -105.61019 6865 ft 242 kts 318°
2026-04-18 18:34 28.28568 -105.62344 6862 ft 242 kts 319°
2026-04-18 18:34 28.29782 -105.63664 6861 ft 241 kts 318°
2026-04-18 18:34 28.30964 -105.64987 6866 ft 241 kts 317°
2026-04-18 18:35 28.32146 -105.66349 6865 ft 241 kts 316°
2026-04-18 18:35 28.33307 -105.67727 6865 ft 241 kts 315°
2026-04-18 18:35 28.34458 -105.69122 6866 ft 242 kts 315°
2026-04-18 18:35 28.35586 -105.70511 6863 ft 241 kts 315°
2026-04-18 18:36 28.36722 -105.71922 6867 ft 242 kts 315°
2026-04-18 18:36 28.37852 -105.73335 6949 ft 237 kts 315°
2026-04-18 18:36 28.38572 -105.74243 7240 ft 230 kts 315°
2026-04-18 18:36 28.39996 -105.76035 7820 ft 234 kts 314°
2026-04-18 18:37 28.41103 -105.77426 8213 ft 241 kts 314°
2026-04-18 18:37 28.41875 -105.78397 8290 ft 247 kts 314°
2026-04-18 18:37 28.43045 -105.79821 8349 ft 251 kts 314°
2026-04-18 18:37 28.44257 -105.81280 8397 ft 254 kts 316°
2026-04-18 18:38 28.45475 -105.82742 8200 ft 253 kts 315°
2026-04-18 18:38 28.46684 -105.84191 8068 ft 250 kts 315°
2026-04-18 18:38 28.47872 -105.85613 8014 ft 246 kts 315°
2026-04-18 18:38 28.49049 -105.87023 8003 ft 244 kts 315°
2026-04-18 18:39 28.50204 -105.88406 7999 ft 244 kts 315°
2026-04-18 18:39 28.51378 -105.89814 8000 ft 244 kts 315°
2026-04-18 18:39 28.52551 -105.91217 8001 ft 245 kts 315°
2026-04-18 18:39 28.53742 -105.92642 7745 ft 252 kts 315°
2026-04-18 18:40 28.54948 -105.94083 7504 ft 250 kts 315°
2026-04-18 18:40 28.56133 -105.95502 7257 ft 249 kts 315°
2026-04-18 18:40 28.57334 -105.96926 7002 ft 247 kts 317°
2026-04-18 18:40 28.58673 -105.98118 6771 ft 241 kts 327°
2026-04-18 18:41 28.60115 -105.99013 6604 ft 231 kts 344°
2026-04-18 18:41 28.61609 -105.99012 6521 ft 207 kts 22°
2026-04-18 18:41 28.62828 -105.98334 6404 ft 191 kts 26°
2026-04-18 18:41 28.64029 -105.97732 5860 ft 179 kts 15°
2026-04-18 18:42 28.65209 -105.97469 5354 ft 170 kts 10°
2026-04-18 18:42 28.66325 -105.97230 5042 ft 157 kts 11°
2026-04-18 18:42 28.67364 -105.97006 4815 ft 147 kts 10°
2026-04-18 18:42 28.68342 -105.96786 4640 ft 143 kts 12°
2026-04-18 18:43 28.69890 -105.96448 4466 ft 21 kts 12°
2026-04-18 18:43 28.69961 -105.96432 4466 ft 13 kts 11°
2026-04-18 18:43 28.70060 -105.96438 4466 ft 15 kts 333°
2026-04-18 18:44 28.70123 -105.96477 4466 ft 8 kts 335°
2026-04-18 18:44 28.70195 -105.96519 4466 ft 15 kts 336°
2026-04-18 18:44 28.70287 -105.96589 4466 ft 17 kts 297°
2026-04-18 18:44 28.70315 -105.96724 4466 ft 20 kts 282°
2026-04-18 18:45 28.70345 -105.96876 4466 ft 17 kts 282°
2026-04-18 18:45 28.70354 -105.96921 4466 ft 6 kts 282°
2026-04-18 18:45 28.70359 -105.96941 4466 ft 0 kts 283°